Location: Laura�t
(43.9341°N, 0.2497°E)
Time: 22:34:26
(UTC+00:00)

Cosmos 1933 Rocket - Pass Details

Date: 03 March 2021
Orbit: 607 x 630 km, 82.5° (Epoch: 17 April)

Event Time Altitude Azimuth Distance (km) Brightness Sun altitude
Rises 18:55:12 0° 178° (S) 2,856 6.9 -12.5°
Reaches altitude 10° 18:57:24 10° 175° (S) 1,959 6.0 -12.9°
Maximum altitude 19:01:41 62° 95° (E) 694 3.5 -13.7°
Drops below altitude 10° 19:06:02 10° 15° (NNE) 1,988 6.1 -14.4°
Sets 19:08:17 0° 12° (NNE) 2,903 6.9 -14.8°
